Terminal Aerodrome Forecast
Issued by NWS

Home | Current Version | Previous Version | Text Only | Print | Product List | Glossary On
Versions: 1 2 3 4 5 6 7 8 9 10 11 12 13 14 15 16 17 18 19 20 21 22 23
000
FTUS41 KBGM 012000 AAA
TAFELM
TAF AMD
KELM 012027Z 0120/0218 06004KT 2SM -SN OVC015
      TEMPO 0120/0124 3/4SM -SN
     FM020200 08004KT 1SM -SN OVC009=

USA.gov is the U.S. government's official web portal to all federal, state and local government web resources and services.